ABY227 OMSJ-LOWW

Flight info

Callsign ABY227
Flight time N/A
Altitude 34000
Route RIDAP M557 TUMAK L602 GADSI M860 TOMSI/N0452F360 M860 NINVA UM860 ODALI UL852 NEGEM L852 KOMAN DCT DEGET DCT BALUX DCT TORNO DCT NATEX NATEX2W
Aircraft A21N/M-SDE2E3FGHIRWXY/LB1

Departure

Time 2026-04-26 12:58
Airport Sharjah International Airport (OMSJ)

Arrival

Time N/A
Airport Vienna International Airport (LOWW)
Time Latitude Longitude Altitude Speed Heading
2026-04-26 12:46 25.32186 55.52380 118 ft 0 kts 302°
2026-04-26 12:52 25.32180 55.52389 118 ft 4 kts 307°
2026-04-26 12:53 25.32162 55.52408 116 ft 4 kts 338°
2026-04-26 12:53 25.32138 55.52411 116 ft 4 kts 25°
2026-04-26 12:53 25.32132 55.52408 118 ft 1 kts 32°
2026-04-26 12:55 25.32152 55.52422 118 ft 13 kts 32°
2026-04-26 12:55 25.32235 55.52480 117 ft 16 kts 32°
2026-04-26 12:56 25.32329 55.52547 118 ft 16 kts 32°
2026-04-26 12:56 25.32426 55.52615 120 ft 20 kts 32°
2026-04-26 12:56 25.32543 55.52655 122 ft 17 kts 351°
2026-04-26 12:56 25.32632 55.52583 118 ft 24 kts 303°
2026-04-26 12:57 25.32839 55.52221 118 ft 89 kts 302°
2026-04-26 12:57 25.33294 55.51424 118 ft 156 kts 302°
2026-04-26 12:57 25.33947 55.50251 275 ft 194 kts 301°
2026-04-26 12:58 25.35346 55.47805 1284 ft 182 kts 302°
2026-04-26 12:58 25.36035 55.46615 1635 ft 189 kts 302°
2026-04-26 12:58 25.36767 55.45331 1819 ft 207 kts 302°
2026-04-26 12:58 25.37571 55.43925 1832 ft 228 kts 302°
2026-04-26 12:59 25.38463 55.42377 1828 ft 244 kts 302°
2026-04-26 12:59 25.39303 55.40728 1923 ft 250 kts 291°
2026-04-26 12:59 25.39692 55.38823 2262 ft 259 kts 273°
2026-04-26 12:59 25.39644 55.36820 2818 ft 262 kts 267°
2026-04-26 13:00 25.39478 55.34808 3377 ft 264 kts 266°
2026-04-26 13:00 25.39283 55.32779 3926 ft 265 kts 265°